WZZ83 LRTM-LHBP

Flight info

Callsign WZZ83
Flight time 0h 49m
Altitude 30000
Route ELROM1N ELROM DCT BUDOP DCT KEZAL KEZAL2H
Aircraft A320/M-SDE1E2E3FGIJ1J4RWXY/LB1

Departure

Time 2026-04-20 19:21
Airport Târgu Mureş Transilvania International Airport (LRTM)

Arrival

Time 2026-04-20 20:10
Airport Budapest Liszt Ferenc International Airport (LHBP)
Time Latitude Longitude Altitude Speed Heading
2026-04-20 19:11 46.46836 24.42505 972 ft 0 kts 346°
2026-04-20 19:17 46.46838 24.42504 980 ft 1 kts 346°
2026-04-20 19:17 46.46855 24.42506 983 ft 4 kts 12°
2026-04-20 19:17 46.46887 24.42526 972 ft 6 kts 18°
2026-04-20 19:17 46.46937 24.42513 976 ft 9 kts 344°
2026-04-20 19:18 46.46990 24.42492 978 ft 3 kts 345°
2026-04-20 19:18 46.47006 24.42469 980 ft 4 kts 288°
2026-04-20 19:18 46.47003 24.42417 975 ft 6 kts 255°
2026-04-20 19:18 46.46999 24.42398 973 ft 0 kts 255°
2026-04-20 19:20 46.46975 24.42269 976 ft 45 kts 254°
2026-04-20 19:20 46.46820 24.41488 979 ft 112 kts 254°
2026-04-20 19:20 46.46563 24.40175 1120 ft 144 kts 253°
2026-04-20 19:21 46.46288 24.38785 1734 ft 143 kts 254°
2026-04-20 19:21 46.46014 24.37392 2385 ft 143 kts 256°
2026-04-20 19:21 46.45739 24.35997 2916 ft 148 kts 257°
2026-04-20 19:21 46.45438 24.34446 3214 ft 171 kts 257°
2026-04-20 19:22 46.45097 24.32698 3515 ft 194 kts 257°
2026-04-20 19:22 46.44715 24.30687 3875 ft 218 kts 261°
2026-04-20 19:22 46.44837 24.28422 4328 ft 239 kts 292°
2026-04-20 19:22 46.45606 24.26206 5091 ft 250 kts 298°
2026-04-20 19:23 46.46436 24.23947 5852 ft 255 kts 298°
2026-04-20 19:23 46.47192 24.21622 6855 ft 256 kts 288°
2026-04-20 19:23 46.47509 24.19054 7783 ft 260 kts 279°
2026-04-20 19:23 46.47755 24.16431 8692 ft 265 kts 279°
2026-04-20 19:24 46.47992 24.13754 9584 ft 270 kts 279°
2026-04-20 19:24 46.48232 24.11048 10229 ft 282 kts 279°
2026-04-20 19:24 46.48495 24.08107 10603 ft 302 kts 278°
2026-04-20 19:24 46.48765 24.05053 11298 ft 308 kts 278°
2026-04-20 19:25 46.49037 24.01947 12094 ft 311 kts 278°
2026-04-20 19:25 46.49315 23.98812 12912 ft 314 kts 278°
2026-04-20 19:25 46.49596 23.95658 13721 ft 317 kts 278°
2026-04-20 19:25 46.49878 23.92506 14455 ft 319 kts 278°
2026-04-20 19:26 46.50163 23.89301 15195 ft 320 kts 278°
2026-04-20 19:26 46.50447 23.86088 15942 ft 322 kts 278°
2026-04-20 19:26 46.50730 23.82855 16686 ft 323 kts 277°
2026-04-20 19:26 46.51011 23.79609 17445 ft 324 kts 277°
2026-04-20 19:27 46.51292 23.76355 18191 ft 326 kts 277°
2026-04-20 19:27 46.51576 23.73078 18862 ft 327 kts 277°
2026-04-20 19:27 46.51862 23.69797 19542 ft 328 kts 277°
2026-04-20 19:27 46.52150 23.66507 20271 ft 329 kts 277°
2026-04-20 19:28 46.52437 23.63203 20960 ft 330 kts 277°
2026-04-20 19:28 46.52723 23.59896 21638 ft 331 kts 277°
2026-04-20 19:28 46.53003 23.56613 22285 ft 332 kts 276°
2026-04-20 19:28 46.53287 23.53276 22951 ft 333 kts 276°
2026-04-20 19:29 46.53572 23.49928 23605 ft 334 kts 276°
2026-04-20 19:29 46.53857 23.46566 24160 ft 336 kts 276°
2026-04-20 19:29 46.54144 23.43173 24665 ft 338 kts 276°
2026-04-20 19:29 46.54424 23.39814 25151 ft 341 kts 276°
2026-04-20 19:30 46.54711 23.36373 25628 ft 344 kts 276°
2026-04-20 19:30 46.55000 23.32895 26106 ft 347 kts 277°
2026-04-20 19:30 46.55290 23.29409 26565 ft 349 kts 277°
2026-04-20 19:30 46.55580 23.25888 27013 ft 352 kts 277°
2026-04-20 19:31 46.55870 23.22339 27456 ft 355 kts 277°
2026-04-20 19:31 46.56162 23.18758 27894 ft 358 kts 277°
2026-04-20 19:31 46.56456 23.15150 28318 ft 360 kts 277°
2026-04-20 19:31 46.56755 23.11512 28745 ft 363 kts 277°
2026-04-20 19:32 46.57050 23.07892 29156 ft 366 kts 277°
2026-04-20 19:32 46.57348 23.04205 29573 ft 369 kts 277°
2026-04-20 19:32 46.57649 23.00471 29876 ft 374 kts 277°
2026-04-20 19:33 46.58238 22.93103 29960 ft 354 kts 277°
2026-04-20 19:33 46.58798 22.86054 29964 ft 348 kts 277°
2026-04-20 19:34 46.59343 22.79118 29964 ft 347 kts 277°
2026-04-20 19:34 46.59888 22.72149 29966 ft 346 kts 277°
2026-04-20 19:35 46.60432 22.65175 29966 ft 346 kts 277°
2026-04-20 19:35 46.60969 22.58227 29965 ft 346 kts 277°
2026-04-20 19:36 46.61498 22.51268 29966 ft 345 kts 277°
2026-04-20 19:36 46.62015 22.44379 29971 ft 345 kts 277°
2026-04-20 19:37 46.62533 22.37440 29968 ft 345 kts 277°
2026-04-20 19:37 46.63288 22.30569 29977 ft 343 kts 289°
2026-04-20 19:38 46.64979 22.24069 29976 ft 343 kts 290°
2026-04-20 19:38 46.66399 22.18676 29980 ft 343 kts 290°
2026-04-20 19:39 46.68104 22.12179 29983 ft 343 kts 290°
2026-04-20 19:39 46.69793 22.05672 29976 ft 343 kts 290°
2026-04-20 19:40 46.71477 21.99158 29974 ft 343 kts 290°
2026-04-20 19:40 46.73156 21.92682 29988 ft 342 kts 290°
2026-04-20 19:41 46.74836 21.86185 29981 ft 341 kts 290°
2026-04-20 19:41 46.76488 21.79751 29984 ft 341 kts 290°
2026-04-20 19:42 46.78147 21.73274 29981 ft 340 kts 290°
2026-04-20 19:42 46.79802 21.66800 29986 ft 339 kts 290°
2026-04-20 19:43 46.81170 21.61435 29919 ft 337 kts 290°
2026-04-20 19:43 46.82248 21.57190 29514 ft 328 kts 290°
2026-04-20 19:43 46.83029 21.54108 29234 ft 325 kts 290°
2026-04-20 19:43 46.83816 21.51019 28942 ft 323 kts 290°
2026-04-20 19:44 46.84597 21.47954 28666 ft 322 kts 290°
2026-04-20 19:44 46.85375 21.44895 28385 ft 320 kts 290°
2026-04-20 19:44 46.86149 21.41843 28105 ft 319 kts 290°
2026-04-20 19:44 46.86917 21.38811 27831 ft 318 kts 290°
2026-04-20 19:45 46.87680 21.35788 27562 ft 316 kts 289°
2026-04-20 19:45 46.88430 21.32809 27299 ft 315 kts 289°
2026-04-20 19:45 46.89188 21.29792 27029 ft 314 kts 289°
2026-04-20 19:45 46.89939 21.26791 26764 ft 313 kts 289°
2026-04-20 19:46 46.90680 21.23824 26555 ft 307 kts 289°
2026-04-20 19:46 46.91410 21.20907 26253 ft 302 kts 289°
2026-04-20 19:46 46.92129 21.18036 25939 ft 298 kts 289°
2026-04-20 19:46 46.92836 21.15212 25612 ft 294 kts 289°
2026-04-20 19:47 46.93532 21.12423 25287 ft 290 kts 289°
2026-04-20 19:47 46.94220 21.09668 24983 ft 286 kts 289°
2026-04-20 19:47 46.94900 21.06948 24648 ft 283 kts 289°
2026-04-20 19:47 46.95562 21.04283 24325 ft 281 kts 289°
2026-04-20 19:48 46.96225 21.01604 24002 ft 279 kts 288°
2026-04-20 19:48 46.96884 20.98937 23679 ft 278 kts 288°
2026-04-20 19:48 46.97545 20.96263 23316 ft 277 kts 288°
2026-04-20 19:48 46.98203 20.93609 22974 ft 277 kts 288°
2026-04-20 19:49 46.98860 20.90956 22643 ft 276 kts 288°
2026-04-20 19:49 46.99513 20.88313 22309 ft 275 kts 288°
2026-04-20 19:49 47.00153 20.85712 21999 ft 274 kts 288°
2026-04-20 19:49 47.00800 20.83090 21652 ft 273 kts 288°
2026-04-20 19:50 47.01443 20.80476 21324 ft 272 kts 289°
2026-04-20 19:50 47.02085 20.77864 20997 ft 271 kts 288°
2026-04-20 19:50 47.02720 20.75264 20665 ft 270 kts 288°
2026-04-20 19:50 47.03352 20.72684 20343 ft 269 kts 289°
2026-04-20 19:51 47.03986 20.70099 20015 ft 268 kts 289°
2026-04-20 19:51 47.04619 20.67522 19688 ft 267 kts 289°
2026-04-20 19:51 47.05249 20.64954 19362 ft 266 kts 289°
2026-04-20 19:51 47.05871 20.62413 19048 ft 265 kts 289°
2026-04-20 19:52 47.06492 20.59864 18722 ft 264 kts 289°
2026-04-20 19:52 47.07100 20.57357 18402 ft 264 kts 289°
2026-04-20 19:52 47.07714 20.54826 18048 ft 263 kts 289°
2026-04-20 19:52 47.08327 20.52298 17717 ft 262 kts 289°
2026-04-20 19:53 47.08938 20.49781 17395 ft 262 kts 289°
2026-04-20 19:53 47.09550 20.47261 17072 ft 261 kts 289°
2026-04-20 19:53 47.10161 20.44742 16751 ft 261 kts 289°
2026-04-20 19:53 47.10772 20.42224 16428 ft 261 kts 289°
2026-04-20 19:54 47.11382 20.39714 16122 ft 261 kts 289°
2026-04-20 19:54 47.11991 20.37199 15790 ft 261 kts 289°
2026-04-20 19:54 47.12830 20.34798 15486 ft 276 kts 301°
2026-04-20 19:54 47.13713 20.32285 15169 ft 276 kts 290°
2026-04-20 19:55 47.14276 20.29599 14720 ft 273 kts 284°
2026-04-20 19:55 47.14712 20.26921 14089 ft 273 kts 283°
2026-04-20 19:55 47.15138 20.24210 13418 ft 273 kts 284°
2026-04-20 19:55 47.15588 20.21502 12778 ft 271 kts 285°
2026-04-20 19:56 47.16065 20.18820 12163 ft 269 kts 286°
2026-04-20 19:56 47.16559 20.16182 11566 ft 266 kts 287°
2026-04-20 19:56 47.17063 20.13568 10983 ft 264 kts 288°
2026-04-20 19:56 47.17570 20.10983 10413 ft 262 kts 288°
2026-04-20 19:57 47.18076 20.08423 9857 ft 259 kts 288°
2026-04-20 19:57 47.18576 20.05900 9358 ft 254 kts 288°
2026-04-20 19:57 47.19065 20.03429 8824 ft 251 kts 288°
2026-04-20 19:57 47.19554 20.00959 8455 ft 251 kts 288°
2026-04-20 19:58 47.20043 19.98492 8124 ft 250 kts 288°
2026-04-20 19:58 47.20519 19.96084 7993 ft 249 kts 288°
2026-04-20 19:58 47.21028 19.93637 7892 ft 249 kts 295°
2026-04-20 19:58 47.21996 19.91587 7618 ft 243 kts 314°
2026-04-20 19:59 47.23179 19.89811 7363 ft 242 kts 316°
2026-04-20 19:59 47.24375 19.88073 7113 ft 241 kts 316°
2026-04-20 19:59 47.25571 19.86336 6895 ft 240 kts 316°
2026-04-20 19:59 47.26541 19.84379 6697 ft 238 kts 292°
2026-04-20 20:00 47.26713 19.81958 6462 ft 243 kts 262°
2026-04-20 20:00 47.25991 19.79700 6203 ft 250 kts 233°
2026-04-20 20:00 47.24776 19.77835 5940 ft 252 kts 227°
2026-04-20 20:00 47.23512 19.76075 5683 ft 249 kts 226°
2026-04-20 20:01 47.22263 19.74363 5547 ft 240 kts 226°
2026-04-20 20:01 47.21302 19.72493 5410 ft 225 kts 253°
2026-04-20 20:01 47.21151 19.70324 5292 ft 208 kts 281°
2026-04-20 20:01 47.21404 19.68282 5154 ft 199 kts 285°
2026-04-20 20:02 47.21698 19.66337 5021 ft 190 kts 286°
2026-04-20 20:02 47.21983 19.64464 4896 ft 185 kts 286°
2026-04-20 20:02 47.22262 19.62626 4774 ft 184 kts 286°
2026-04-20 20:02 47.22701 19.60877 4634 ft 180 kts 307°
2026-04-20 20:03 47.23508 19.59505 4518 ft 179 kts 314°
2026-04-20 20:03 47.24358 19.58157 4381 ft 179 kts 314°
2026-04-20 20:03 47.25204 19.56811 4250 ft 178 kts 314°
2026-04-20 20:03 47.26047 19.55465 4122 ft 178 kts 314°
2026-04-20 20:04 47.26885 19.54126 3991 ft 177 kts 314°
2026-04-20 20:04 47.27720 19.52793 3871 ft 177 kts 314°
2026-04-20 20:04 47.28553 19.51460 3743 ft 177 kts 314°
2026-04-20 20:04 47.29382 19.50134 3617 ft 176 kts 314°
2026-04-20 20:05 47.30203 19.48819 3529 ft 176 kts 314°
2026-04-20 20:05 47.31032 19.47491 3454 ft 176 kts 313°
2026-04-20 20:05 47.31861 19.46163 3403 ft 176 kts 313°
2026-04-20 20:05 47.32668 19.44869 3257 ft 168 kts 313°
2026-04-20 20:06 47.33444 19.43623 3049 ft 161 kts 313°
2026-04-20 20:06 47.34178 19.42446 2843 ft 149 kts 313°
2026-04-20 20:06 47.34853 19.41362 2657 ft 139 kts 313°
2026-04-20 20:06 47.35495 19.40331 2480 ft 135 kts 313°
2026-04-20 20:07 47.36128 19.39315 2300 ft 134 kts 313°
2026-04-20 20:07 47.36757 19.38304 2118 ft 133 kts 313°
2026-04-20 20:07 47.37382 19.37299 1941 ft 133 kts 313°
2026-04-20 20:07 47.38006 19.36295 1762 ft 132 kts 313°
2026-04-20 20:08 47.38627 19.35296 1578 ft 132 kts 313°
2026-04-20 20:08 47.39247 19.34297 1391 ft 132 kts 313°
2026-04-20 20:08 47.39868 19.33298 1194 ft 132 kts 312°
2026-04-20 20:08 47.40486 19.32300 998 ft 132 kts 313°
2026-04-20 20:09 47.41101 19.31310 814 ft 132 kts 313°
2026-04-20 20:09 47.41725 19.30310 645 ft 132 kts 311°
2026-04-20 20:09 47.42342 19.29306 477 ft 132 kts 312°
2026-04-20 20:09 47.42908 19.28394 453 ft 101 kts 313°
2026-04-20 20:10 47.43266 19.27819 458 ft 56 kts 312°
2026-04-20 20:10 47.43495 19.27451 468 ft 43 kts 312°
2026-04-20 20:10 47.43645 19.27204 472 ft 25 kts 308°
2026-04-20 20:10 47.43730 19.26980 472 ft 23 kts 290°
2026-04-20 20:11 47.43765 19.26797 463 ft 14 kts 281°
2026-04-20 20:11 47.43779 19.26692 461 ft 10 kts 281°
2026-04-20 20:11 47.43795 19.26572 459 ft 9 kts 281°
2026-04-20 20:11 47.43791 19.26468 458 ft 12 kts 231°
2026-04-20 20:12 47.43723 19.26381 457 ft 9 kts 220°
2026-04-20 20:12 47.43675 19.26344 458 ft 9 kts 175°
2026-04-20 20:12 47.43623 19.26419 458 ft 11 kts 132°
2026-04-20 20:13 47.43549 19.26537 458 ft 10 kts 133°
2026-04-20 20:13 47.43511 19.26598 458 ft 6 kts 133°
2026-04-20 20:13 47.43492 19.26617 458 ft 4 kts 163°
2026-04-20 20:13 47.43467 19.26595 458 ft 4 kts 219°
2026-04-20 20:14 47.43449 19.26572 458 ft 1 kts 222°
2026-04-20 20:14 47.43449 19.26571 458 ft 0 kts 222°